{"data":{"norad_id":52001,"intl_designator":"2022-025AX","name":"STARLINK-3659","alt_names":[],"object_type":"PAYLOAD","status":"ACTIVE","operator":null,"country":"US","launch_date":"2022-03-09","launch_site_code":"AFETR","launch_vehicle":null,"mission":null,"orbit_class":"UNKNOWN","rcs_meters":null,"size_class":null,"mass_kg":null,"dimensions":null,"purposes":["comms"],"wikipedia_slug":null,"has_3d_model":false,"image_url":null,"decayed_at":null,"tle_current":{"epoch":"2026-05-25T00:05:42.232128Z","epoch_age_seconds":81437,"freshness":"FRESH","line1":"1 52001U 22025AX  26145.00396102 -.00008268  00000+0 -50143-3 0  9999","line2":"2 52001  53.2133  36.5413 0001274  91.7996 268.3142 15.08877302232446","mean_motion":15.08877302,"eccentricity":0.0001274,"inclination_deg":53.2133,"raan_deg":36.5413,"arg_perigee_deg":91.7996,"mean_anomaly_deg":268.3142,"bstar":-0.00050143,"rev_number":23244,"period_min":95.435195299929,"perigee_km":538.74805058587,"apogee_km":540.51069745797,"semimajor_km":6917.7663740219,"source":"CELESTRAK","updated_at":"2026-05-25T13:38:16.999960Z"}}}